Adana Incirlik AFB, Turkey

12:54 AM +03 on April 22, 2018 (GMT +0300)
Incirlik Air Base

Weather History for LTAG - October, 2013

Change the Weather History Date:

Monday, October 14, 2013

  Actual Average Record
Temperature  
Mean Temperature 72 °F -  
Max Temperature 86 °F 78 °F 96 °F (2008)
Min Temperature 57 °F 56 °F 39 °F (1997)
Cooling Degree Days 6    
Growing Degree Days 22 (Base 50)    
Moisture  
Dew Point 40 °F    
Average Humidity 35    
Maximum Humidity 77    
Minimum Humidity 8    
Precipitation  
Precipitation 0.00 in - - ()
Sea Level Pressure  
Sea Level Pressure 29.90 in    
Wind  
Wind Speed 9 mph ()    
Max Wind Speed 17 mph    
Max Gust Speed -    
Visibility 6.0 miles    
Events      
Averages and records for this station are not official NWS values.
T = Trace of Precipitation, MM = Missing Value Source: Averaged Metar Reports

Daily Weather History Graph

Daily Weather History Graph

Search for Another Location

Airport or City:

Astronomy

Oct. 14, 2013 Rise Set
Actual Time 6:44 AM EEST 6:03 PM EEST
Civil Twilight 6:18 AM EEST 6:29 PM EEST
Nautical Twilight 5:48 AM EEST 6:59 PM EEST
Astronomical Twilight 5:18 AM EEST 7:29 PM EEST
Moon 3:13 PM EEST (10/14) 1:45 AM EEST (10/14)
Length of Visible Light 12h 10m
Length of Day
11h 18m
Waxing Gibbous, 76% of the Moon is Illuminated
Oct 14
Waxing Gibbous
Oct 19
Full
Oct 27
Last Quarter
Nov 3
New
Nov 10
First Quarter

Hourly Weather History & Observations

Time (EEST) Temp. Dew Point Humidity Pressure Visibility Wind Dir Wind Speed Gust Speed Precip Events Conditions
12:20 AM 64.4 °F 37.4 °F 37% 29.86 in - NE 9.2 mph - N/A   Clear
12:50 AM 66.2 °F 37.4 °F 35% 29.86 in - NE 10.4 mph - N/A   Clear
1:20 AM 62.6 °F 37.4 °F 39% 29.86 in - NE 10.4 mph - N/A   Clear
1:50 AM 64.4 °F 37.4 °F 37% 29.86 in - NE 9.2 mph - N/A   Clear
2:20 AM 62.6 °F 37.4 °F 39% 29.86 in - NE 9.2 mph - N/A   Clear
2:50 AM 60.8 °F 37.4 °F 42% 29.86 in - NNE 10.4 mph - N/A   Clear
3:00 AM 62 °F 38 °F 29% 29.86 in 6 mi NNE 10.4 mph - -  
3:20 AM 60.8 °F 37.4 °F 42% 29.86 in - NNE 6.9 mph - N/A   Clear
3:50 AM 62.6 °F 37.4 °F 39% 29.86 in - NNW 5.8 mph - N/A   Clear
4:20 AM 60.8 °F 37.4 °F 42% 29.86 in - North 10.4 mph - N/A   Clear
4:50 AM 62.6 °F 37.4 °F 39% 29.86 in - North 10.4 mph - N/A   Clear
5:20 AM 62.6 °F 37.4 °F 39% 29.86 in - NNE 11.5 mph - N/A   Clear
5:50 AM 62.6 °F 37.4 °F 39% 29.86 in - NNE 11.5 mph - N/A   Clear
6:20 AM 62.6 °F 35.6 °F 37% 29.86 in - NNE 11.5 mph - N/A   Clear
6:50 AM 60.8 °F 37.4 °F 42% 29.86 in - NNE 11.5 mph - N/A   Clear
7:20 AM 62.6 °F 37.4 °F 39% 29.89 in - NNE 12.7 mph - N/A   Clear
7:50 AM 66.2 °F 35.6 °F 32% 29.89 in - North 10.4 mph - N/A   Clear
8:20 AM 69.8 °F 35.6 °F 28% 29.89 in - North 15.0 mph - N/A   Clear
8:50 AM 71.6 °F 35.6 °F 27% 29.89 in - North 12.7 mph - N/A   Clear
9:00 AM 71 °F 36 °F 18% 29.90 in 6 mi North 12.7 mph - -  
9:20 AM 73.4 °F 35.6 °F 25% 29.92 in - North 11.5 mph - N/A   Clear
9:50 AM 77.0 °F 35.6 °F 22% 29.92 in - NNE 16.1 mph - N/A   Clear
10:20 AM 78.8 °F 35.6 °F 21% 29.92 in - North 15.0 mph - N/A   Clear
10:50 AM 78.8 °F 35.6 °F 21% 29.92 in - NNE 13.8 mph - N/A   Clear
11:20 AM 80.6 °F 35.6 °F 20% 29.92 in - North 10.4 mph - N/A   Clear
11:50 AM 82.4 °F 35.6 °F 19% 29.89 in - North 15.0 mph - N/A   Clear
12:20 PM 84.2 °F 35.6 °F 18% 29.89 in - North 12.7 mph - N/A   Clear
12:50 PM 84.2 °F 33.8 °F 16% 29.89 in - NNE 13.8 mph - N/A   Clear
1:20 PM 86.0 °F 33.8 °F 15% 29.89 in - NE 13.8 mph - N/A   Clear
1:50 PM 86.0 °F 33.8 °F 15% 29.89 in - NE 9.2 mph - N/A   Clear
2:20 PM 86.0 °F 33.8 °F 15% 29.89 in - NE 9.2 mph - N/A   Clear
2:50 PM 86.0 °F 33.8 °F 15% 29.89 in - North 9.2 mph - N/A   Clear
3:00 PM 86 °F 34 °F 8% 29.88 in 6 mi North 9.2 mph - -  
3:20 PM 86.0 °F 33.8 °F 15% 29.89 in - NNE 9.2 mph - N/A   Clear
3:50 PM 86.0 °F 33.8 °F 15% 29.89 in - ENE 4.6 mph - N/A   Clear
4:20 PM 86.0 °F 33.8 °F 15% 29.89 in - North 4.6 mph - N/A   Clear
4:50 PM 84.2 °F 35.6 °F 18% 29.89 in - North 6.9 mph - N/A   Clear
5:20 PM 80.6 °F 50.0 °F 34% 29.89 in - SW 17.3 mph - N/A   Clear
5:50 PM 77.0 °F 50.0 °F 39% 29.89 in - SW 10.4 mph - N/A   Clear
6:20 PM 73.4 °F 50.0 °F 44% 29.92 in - WSW 9.2 mph - N/A   Clear
6:50 PM 73.4 °F 48.2 °F 41% 29.92 in - WSW 5.8 mph - N/A   Clear
7:20 PM 71.6 °F 48.2 °F 43% 29.92 in - WSW 6.9 mph - N/A   Clear
7:50 PM 71.6 °F 44.6 °F 38% 29.92 in - WNW 4.6 mph - N/A   Clear
8:20 PM 69.8 °F 46.4 °F 43% 29.95 in - SE 3.5 mph - N/A   Clear
8:50 PM 68.0 °F 50.0 °F 52% 29.95 in - ESE 2.3 mph - N/A   Clear
9:00 PM 69 °F 50 °F 39% 29.95 in 6 mi ESE 2.3 mph - -  
9:20 PM 66.2 °F 50.0 °F 56% 29.95 in - ENE 4.6 mph - N/A   Clear
9:50 PM 59.0 °F 48.2 °F 67% 29.95 in - ENE 8.1 mph - N/A   Clear
10:20 PM 59.0 °F 50.0 °F 72% 29.95 in - ENE 6.9 mph - N/A   Clear
10:50 PM 57.2 °F 50.0 °F 77% 29.98 in - NE 6.9 mph - N/A   Clear
11:20 PM 57.2 °F 50.0 °F 77% 29.98 in - NNE 5.8 mph - N/A   Clear
11:50 PM 59.0 °F 50.0 °F 72% 29.98 in - NE 9.2 mph - N/A   Clear